RH
18 20 23 28 31 36 40 43 51 59 63 65 67 66 66 66 61 50 35 32 46 53 49 41 38 40 40 41 39 40 42 46 69 75 60 50 33 30 41 35 30 32 33 38 44 53 57 61 77 87 89 93 95 95 90 83 77 77 83 76 67 77 91 94 88 76 63 56 60 65 70 72 73 74 74 72 72 71 70 67 65 65 69 72 74
17 17 21 26 30 37 42 42 47 56 62 64 66 67 68 68 70 63 44 37 41 45 51 47 38 37 38 39 37 42 41 28 40 54 50 46 39 39 43 45 46 38 39 42 40 50 56 56 61 64 70 75 80 91 94 92 89 88 90 80 67 73 87 93 89 80 69 59 59 65 69 71 73 75 75 73 71 71 73 71 66 66 70 72 73
17 17 20 26 31 37 43 43 44 52 59 63 63 64 67 67 70 71 59 52 43 38 53 52 37 36 36 34 32 36 35 22 27 42 56 72 72 66 67 62 53 48 58 65 57 59 70 76 72 66 67 66 63 72 86 95 98 97 96 90 80 80 87 92 87 78 71 63 59 62 64 66 70 73 76 74 70 72 72 68 68 69 70 72 74
16 20 27 31 35 39 43 44 44 50 55 59 63 63 66 66 68 73 65 58 52 40 45 44 36 38 35 32 33 35 40 40 47 56 63 78 82 82 81 59 44 58 75 82 80 78 84 90 88 85 87 83 71 60 63 75 89 99 97 93 91 89 89 90 86 81 76 70 62 58 58 59 62 66 73 73 68 70 71 67 68 70 70 70 72
18 24 34 36 36 39 43 43 44 49 51 55 62 62 62 63 66 74 65 54 51 43 42 44 47 50 45 46 49 50 57 53 44 38 38 59 78 79 72 56 56 75 81 81 86 87 88 90 91 93 95 95 90 80 68 55 60 84 96 94 91 92 91 88 88 86 81 76 67 59 57 57 55 54 63 72 71 69 68 67 70 72 70 68 68
23 25 32 34 34 36 38 41 42 45 50 54 59 61 60 61 65 74 70 55 46 43 44 46 54 57 51 53 53 51 58 49 31 25 22 34 52 57 64 74 77 78 81 85 90 92 91 92 92 93 97 97 93 94 91 70 54 60 78 93 95 97 97 91 88 85 81 80 72 62 58 59 57 53 56 62 68 72 69 65 69 73 72 69 66
26 26 28 30 32 33 34 38 39 42 48 52 57 61 58 60 66 71 70 58 45 44 45 46 56 58 45 42 44 46 52 41 25 25 24 23 28 35 53 80 88 84 89 92 93 96 96 94 94 93 97 98 92 93 96 92 81 61 54 70 84 92 99 99 94 84 80 81 75 65 59 57 59 61 59 54 55 68 73 69 67 69 71 70 66
25 27 27 29 31 33 34 35 38 42 45 50 58 57 49 58 68 65 65 59 45 44 47 47 59 59 43 39 46 48 41 33 30 28 25 24 24 25 34 56 76 84 91 94 92 95 97 96 97 95 94 95 93 93 93 93 95 79 57 57 67 77 88 97 95 83 80 81 76 71 63 57 60 62 65 61 54 59 68 69 67 64 67 68 64
25 27 27 29 31 32 33 35 38 42 43 50 55 42 35 53 62 54 57 58 45 44 48 48 54 54 45 46 50 46 32 29 39 35 27 27 25 24 24 30 48 63 76 87 89 92 96 93 93 95 94 94 90 87 88 91 93 87 74 69 69 70 76 85 85 79 80 84 80 75 68 62 63 64 67 68 62 56 57 62 65 64 63 62 58
23 26 26 28 31 31 33 36 39 39 43 54 51 32 30 43 47 44 49 52 45 43 47 48 51 50 46 45 40 37 32 31 37 33 28 29 27 27 26 24 33 41 46 56 65 74 82 83 85 91 93 95 93 86 85 89 86 78 72 77 78 71 71 79 84 84 87 92 87 79 75 69 66 67 68 68 67 62 56 57 60 60 59 57 56
21 24 26 27 30 32 34 36 38 41 49 56 44 29 32 36 37 40 44 47 46 43 46 48 51 52 48 44 37 34 34 31 31 31 29 30 28 28 28 27 29 30 28 34 42 46 49 56 67 80 87 91 92 90 88 88 86 80 74 75 78 76 73 76 88 96 95 98 96 85 80 77 70 66 65 65 67 67 64 62 57 52 55 60 62
19 22 23 27 31 32 36 37 41 50 48 42 35 30 32 33 35 38 41 46 47 43 46 49 51 55 52 46 40 35 34 33 32 32 31 30 30 29 29 29 29 30 31 34 39 36 31 34 40 54 74 87 91 91 90 90 90 91 89 82 78 79 78 77 85 93 93 96 97 92 86 80 74 69 66 65 66 68 70 72 64 51 50 57 61
18 20 20 25 30 35 42 42 45 54 43 28 31 33 32 33 35 39 43 48 48 45 46 49 52 55 54 48 41 36 34 33 33 32 32 32 32 31 30 31 31 33 34 33 34 33 30 31 31 34 48 65 75 75 74 81 86 91 96 93 83 78 77 79 82 83 86 89 91 95 93 86 79 73 68 64 64 68 72 76 75 62 52 49 49
16 17 18 21 27 35 43 42 42 51 48 36 33 30 31 34 33 36 46 49 46 44 42 47 53 55 55 51 43 38 35 33 33 33 33 33 33 33 32 32 32 32 34 33 32 33 32 32 32 30 30 37 49 55 56 64 75 83 92 94 88 81 76 79 84 82 80 83 87 91 92 89 85 80 74 70 67 71 72 73 77 75 67 55 43
15 15 16 18 24 32 38 38 37 43 49 49 45 34 26 29 28 28 42 50 45 42 42 45 51 53 54 52 45 40 36 33 34 33 34 35 34 35 33 33 34 33 34 34 33 33 32 31 30 29 28 26 31 41 48 51 55 65 80 87 86 84 80 77 82 82 77 78 83 87 88 89 86 80 78 77 72 72 72 69 74 80 81 71 51
14 15 16 18 23 29 34 36 34 36 41 47 55 47 26 24 27 23 39 59 53 45 47 50 53 53 51 52 48 41 36 34 34 34 35 35 35 36 36 35 36 35 35 35 35 34 32 30 29 28 29 27 25 29 38 45 48 54 71 85 84 82 82 78 76 79 80 79 81 82 85 91 91 82 74 71 71 72 70 68 72 78 84 84 66
14 15 16 18 21 26 32 34 33 35 37 38 52 53 29 22 28 22 38 66 61 45 46 52 56 53 51 52 49 41 37 35 34 35 35 36 37 37 38 38 37 37 37 35 35 34 33 34 32 30 35 40 42 40 34 38 49 57 67 81 88 87 88 85 80 79 79 80 82 81 83 89 95 91 79 71 73 74 68 65 70 74 78 86 81
13 14 15 16 19 25 30 31 32 34 33 36 50 53 32 22 27 24 31 54 55 44 46 51 54 54 52 52 47 41 38 36 36 37 37 38 39 38 39 39 39 40 39 41 45 41 43 54 53 50 59 68 72 73 60 48 54 62 62 69 86 96 95 91 88 85 79 77 78 81 84 86 87 90 86 79 75 70 64 66 72 76 77 82 85
14 13 15 16 19 24 26 27 29 28 30 38 46 44 32 25 27 24 28 50 59 50 47 51 53 55 53 50 47 41 38 37 37 38 39 39 40 41 41 39 39 42 47 63 76 65 62 78 80 75 85 93 90 89 85 75 69 70 66 63 75 93 100 96 91 90 86 79 74 74 80 83 80 84 88 86 81 71 60 61 68 75 81 81 80
14 14 15 17 19 21 22 23 24 24 34 43 40 36 32 26 25 25 32 55 64 51 47 51 53 55 53 49 46 41 39 40 39 40 41 41 42 42 41 42 49 58 66 79 89 82 79 88 90 85 89 94 94 93 94 93 87 81 79 76 77 86 98 101 96 91 87 83 79 74 72 75 78 84 89 87 85 78 64 58 57 59 72 83 82
15 15 16 17 19 19 19 22 22 24 39 43 33 31 30 24 26 27 29 48 55 46 46 52 52 54 52 49 46 42 41 42 42 44 43 42 44 44 45 55 68 78 85 87 87 88 89 89 89 89 89 92 96 96 95 97 92 85 83 84 86 90 96 101 99 94 88 84 82 79 75 75 78 84 88 83 81 80 70 61 57 49 57 79 88
16 17 16 16 17 19 20 21 19 25 42 43 28 26 28 24 28 28 29 44 49 41 44 52 53 52 51 49 46 43 45 45 45 46 44 45 48 49 58 73 82 87 92 92 89 90 93 92 88 91 94 95 97 98 98 98 95 90 86 84 88 94 97 100 100 98 93 86 81 80 78 78 80 83 85 80 80 84 74 61 55 45 42 60 81
17 17 17 17 17 19 19 20 21 28 45 48 35 32 33 27 27 28 30 40 44 41 49 58 58 55 52 50 48 47 48 47 47 47 46 49 53 60 72 81 82 85 88 86 83 83 90 93 90 91 96 99 100 100 100 98 95 92 91 86 86 87 88 92 97 99 99 93 85 80 76 76 81 83 84 80 78 84 81 68 59 49 38 38 54
18 18 18 18 18 20 18 18 25 33 44 52 46 40 36 28 30 34 32 36 44 50 61 68 68 65 58 53 52 52 51 50 48 47 47 52 61 71 80 82 79 81 82 80 81 82 87 92 94 96 99 99 100 101 100 100 97 95 95 91 85 80 76 79 87 93 96 97 94 87 79 74 75 78 83 83 80 81 84 83 78 72 62 49 44
18 18 19 19 18 20 19 18 25 30 37 51 52 45 38 29 32 38 35 39 52 62 68 71 74 76 70 61 58 55 53 51 47 45 49 58 68 76 80 83 81 79 79 81 85 89 93 96 99 100 100 100 100 100 100 101 99 98 98 95 89 81 72 70 77 82 86 91 95 95 88 78 74 75 77 81 83 81 80 84 84 79 78 75 66
20 18 19 20 19 20 20 19 24 24 27 42 49 47 43 34 32 36 34 39 56 67 69 68 72 79 79 73 67 58 52 48 46 50 55 60 68 75 80 84 84 81 82 86 88 92 96 99 100 100 100 101 100 100 100 100 100 100 99 97 95 89 77 68 67 71 78 83 86 92 95 89 84 81 76 76 81 82 80 80 79 77 80 87 86
18 19 20 20 20 21 21 21 24 23 23 35 45 47 48 40 30 33 37 43 55 63 65 67 71 75 77 76 72 63 53 47 48 53 57 62 71 77 82 87 87 83 85 87 90 93 97 99 100 100 100 100 100 100 100 100 100 100 99 98 97 95 89 80 68 60 65 76 80 84 92 95 91 86 81 76 76 81 83 79 76 81 87 92 94
17 19 20 20 20 22 24 24 25 24 28 37 41 45 50 43 30 35 46 48 49 56 63 68 71 71 70 68 66 59 52 49 52 56 61 70 80 82 85 90 88 85 88 92 94 97 99 100 100 100 100 101 100 100 99 99 99 99 100 99 98 98 96 92 84 70 61 66 74 79 83 89 91 89 87 83 79 79 82 82 85 89 85 85 91
24 22 20 21 22 22 25 27 26 27 34 38 37 42 50 46 38 46 54 48 44 54 65 68 68 70 70 66 63 60 57 59 64 70 75 80 84 84 86 88 87 87 91 94 96 97 99 100 100 100 100 100 100 99 97 94 92 94 98 100 100 101 99 97 96 90 77 69 72 78 81 82 86 89 89 88 86 83 80 83 92 92 79 75 87
30 29 24 20 21 23 24 25 28 33 37 36 35 40 46 47 48 55 58 53 50 56 63 63 64 68 72 72 71 70 70 72 76 79 82 83 83 84 85 86 88 89 91 94 96 97 99 100 100 100 100 100 100 100 95 85 81 84 91 96 98 100 101 100 98 98 94 84 75 77 82 84 84 88 89 86 86 88 86 82 87 91 84 77 85
26 30 30 23 22 24 24 25 33 39 36 33 34 38 42 47 51 57 59 57 57 57 58 60 62 67 73 74 73 73 74 76 79 81 82 82 82 82 84 86 87 87 91 96 98 99 99 100 100 100 101 100 100 100 96 87 82 82 83 88 94 96 98 101 100 99 99 94 83 76 78 84 89 92 93 89 84 85 87 84 85 90 88 84 84
24 26 31 32 29 24 24 29 37 38 33 33 35 35 39 46 50 54 56 55 56 57 58 61 63 66 70 71 69 70 73 75 76 78 79 80 80 80 81 82 82 86 92 96 98 100 100 100 100 100 100 100 100 100 98 93 89 89 89 91 94 96 96 98 100 100 100 100 96 86 80 82 89 95 98 95 89 83 81 80 83 87 86 84 86
24 24 29 36 34 27 28 33 35 34 32 35 36 33 36 44 49 50 49 50 54 56 58 61 64 66 67 68 68 70 72 74 73 75 79 81 80 78 76 76 80 88 94 97 99 100 100 100 100 100 100 100 99 100 100 98 96 96 98 98 97 98 99 99 99 101 100 100 101 98 91 85 86 92 97 97 94 90 83 76 77 85 89 83 78
25 26 28 32 31 28 30 32 32 33 34 35 35 34 36 43 48 47 46 48 52 55 57 61 64 65 65 66 68 70 71 70 70 74 79 80 77 75 74 76 82 90 95 98 100 100 100 101 100 99 100 99 98 98 98 99 100 100 100 101 100 100 100 100 100 100 100 100 100 101 100 94 92 95 95 93 91 92 90 83 75 76 84 84 74
30 29 30 31 29 29 33 36 36 38 39 36 35 37 40 44 47 45 46 48 50 52 58 63 65 65 64 65 67 69 69 68 70 74 77 76 74 72 74 78 85 92 97 99 101 100 100 101 100 100 101 100 98 97 97 98 100 100 100 100 100 101 100 100 101 100 100 101 100 100 100 100 99 98 94 90 88 89 91 88 79 71 72 77 73
35 35 33 31 32 34 40 44 43 44 45 41 39 40 42 45 46 46 47 49 49 50 55 61 65 65 64 65 67 68 68 69 72 74 73 71 70 72 76 82 87 93 97 98 98 99 100 100 100 100 100 100 100 99 99 100 99 99 100 100 100 101 100 100 100 100 100 100 100 100 100 100 101 100 95 91 88 87 86 85 84 77 68 67 67
38 37 36 37 40 44 50 52 49 48 46 42 41 43 45 46 47 46 47 49 51 52 53 58 61 61 62 65 65 66 67 68 69 70 69 68 69 73 79 84 89 94 95 94 95 97 99 99 100 100 100 100 100 100 100 100 99 100 100 100 100 100 100 100 100 100 101 100 100 100 99 99 101 98 93 90 90 90 86 83 84 84 78 73 71
41 42 45 49 48 49 53 55 52 50 46 42 42 45 46 46 45 45 46 47 49 51 53 54 56 56 58 62 63 64 65 64 64 66 67 69 72 76 80 85 92 96 94 94 96 96 98 99 100 100 101 100 100 100 100 100 100 100 100 100 100 100 100 100 100 100 100 100 100 101 99 98 100 98 93 91 91 91 90 86 84 84 83 82 79
48 48 49 51 51 49 50 52 50 49 46 42 42 45 46 45 44 43 44 45 47 50 51 51 51 52 55 60 64 66 65 65 65 67 71 74 74 76 81 89 97 98 96 96 98 96 97 100 100 100 100 100 100 100 99 100 100 100 100 100 100 100 100 100 100 100 100 100 100 101 99 93 91 96 99 95 91 92 92 88 85 85 86 86 84
47 46 45 48 54 51 47 48 48 48 47 43 44 47 46 44 44 44 45 47 50 53 51 48 48 50 56 61 65 66 66 68 70 70 72 75 75 77 86 94 99 99 98 99 99 98 99 100 100 101 101 99 98 99 99 99 100 100 101 100 100 100 100 100 100 100 100 100 99 100 101 95 87 90 97 95 93 95 94 90 88 88 88 88 85
43 47 48 47 49 47 44 47 49 48 48 46 46 47 45 44 45 46 47 51 53 53 49 47 48 50 54 58 61 64 67 70 72 71 70 71 73 81 91 98 99 100 100 100 99 99 100 100 100 100 100 97 96 98 99 99 100 100 101 100 100 100 100 100 101 100 100 100 100 99 101 100 95 91 90 90 93 95 95 93 89 85 85 82 77
50 54 49 42 43 46 48 50 50 49 49 48 46 46 44 45 47 48 50 52 52 49 46 47 49 50 53 58 62 67 71 72 71 70 69 68 72 84 95 100 100 100 100 100 100 99 99 100 100 99 99 98 97 99 100 100 100 100 100 100 100 100 100 100 101 101 100 100 100 101 100 100 101 96 87 84 91 96 96 94 91 89 90 87 78
56 52 44 41 44 47 49 51 49 48 48 47 46 45 44 45 47 49 51 51 48 45 44 46 49 50 53 60 64 65 68 69 69 69 68 66 73 87 97 100 100 101 100 100 100 100 100 100 100 99 99 99 98 100 100 100 100 100 100 100 100 100 100 100 100 101 101 99 100 101 100 99 100 99 91 82 85 95 98 97 95 95 96 92 85
49 45 43 43 42 42 49 53 50 46 46 47 46 45 45 45 47 49 50 49 47 45 46 48 50 49 51 54 56 58 62 64 64 65 64 64 74 88 96 98 99 100 100 100 100 100 100 100 100 100 99 97 97 100 100 100 100 100 100 100 100 100 100 100 100 101 100 100 100 100 100 100 99 101 98 87 82 92 100 100 97 96 96 96 92
44 45 46 43 40 44 52 54 49 44 44 46 45 44 44 44 46 49 49 48 48 48 48 47 45 44 46 48 49 52 56 57 58 60 60 62 73 85 91 97 100 100 100 100 100 100 100 100 100 100 100 96 95 97 99 99 100 101 100 100 100 100 100 100 100 101 99 98 98 98 99 100 99 100 102 96 90 92 98 100 99 95 93 96 96
46 49 49 44 44 50 53 54 51 45 43 45 44 43 42 44 46 47 46 46 48 48 47 45 43 42 44 45 45 45 48 50 54 57 58 62 72 80 87 95 100 100 99 100 100 100 101 101 100 100 101 98 95 95 97 97 99 101 100 100 100 100 101 100 100 100 97 94 94 97 99 101 101 100 101 100 97 94 93 96 99 94 90 93 97
49 52 51 48 50 51 50 52 52 46 42 45 45 41 41 45 46 45 45 46 46 45 45 45 44 43 41 40 40 41 44 47 49 51 55 62 69 76 85 95 100 100 100 100 100 100 100 100 100 100 100 100 98 97 95 95 98 101 100 100 101 100 100 101 100 99 98 96 96 98 100 100 100 99 98 98 98 97 96 97 98 95 94 96 97
52 52 51 49 48 46 44 49 53 49 43 44 43 40 41 45 46 44 46 46 44 43 45 44 43 42 40 38 40 43 45 45 44 45 52 59 65 71 81 90 95 98 100 100 100 101 100 100 100 100 100 100 100 98 95 95 99 101 100 100 101 100 100 101 100 98 99 100 99 99 100 100 100 99 99 99 99 99 100 100 99 99 99 99 99
51 51 49 46 45 43 42 48 55 53 45 43 43 40 40 44 45 44 46 47 46 46 46 43 41 41 41 42 44 45 46 46 45 45 49 56 64 69 74 80 86 93 99 101 100 100 101 100 101 101 100 100 100 98 96 96 99 101 100 100 101 100 99 99 99 98 99 100 100 100 100 100 100 100 100 101 100 100 101 100 100 101 100 100 100
47 49 46 45 47 48 46 51 58 57 48 43 43 42 41 44 45 45 47 48 47 45 44 41 41 42 44 46 48 47 48 49 49 47 47 53 61 63 65 73 83 91 96 100 100 100 100 100 100 100 100 100 101 100 98 98 99 100 101 100 100 100 99 99 99 100 99 99 100 100 100 100 101 101 100 100 100 101 100 100 100 100 100 100 101
44 44 41 44 52 53 50 50 56 57 50 43 42 43 42 43 45 46 48 48 44 41 41 41 42 44 46 48 48 47 49 51 50 49 49 52 58 61 61 69 82 90 93 97 100 100 100 100 100 100 100 100 100 100 100 99 99 100 100 100 100 100 100 100 100 100 100 100 100 100 100 101 100 100 100 100 100 100 100 100 101 100 100 101 100
Wind_Speed
14 15 17 19 20 19 18 17 16 15 15 14 14 13 12 10 8 7 7 5 3 2 2 1 2 3 5 6 8 9 10 10 6 6 7 7 11 10 9 10 12 13 13 13 14 15 19 22 23 24 25 26 27 28 29 30 29 29 31 27 22 24 20 16 17 15 14 14 13 13 14 16 16 18 18 18 19 18 18 19 18 18 17 17 18
17 17 17 18 20 21 20 19 17 17 16 16 15 13 12 11 9 8 8 6 6 4 3 2 1 2 3 5 8 8 10 13 9 7 9 9 9 9 9 10 11 11 11 13 14 14 15 16 19 22 24 26 26 27 29 30 31 32 32 30 28 31 26 18 18 18 16 16 14 13 14 16 17 18 19 19 20 20 20 19 19 19 19 18 18
18 16 16 17 19 22 21 20 19 18 17 16 15 14 13 12 11 10 9 8 8 6 4 3 4 4 3 5 7 7 11 17 16 10 8 6 6 6 6 8 11 10 7 8 11 11 10 10 12 15 18 21 24 27 29 30 32 32 31 31 31 33 30 24 23 22 19 17 15 15 15 15 16 18 20 21 21 21 20 20 20 20 19 19 18
17 14 15 17 19 21 22 21 20 18 17 16 16 15 15 13 12 12 12 10 9 8 6 6 6 5 6 7 9 10 11 14 14 11 8 6 4 4 6 10 11 8 5 6 6 7 8 8 9 9 10 13 17 22 27 29 30 31 32 31 31 31 30 27 26 24 22 20 17 17 16 15 17 19 21 23 22 22 22 21 21 20 19 19 18
15 15 16 17 19 21 22 21 20 19 18 17 16 16 16 14 13 14 13 11 11 11 8 6 4 3 5 6 7 8 8 8 10 11 10 8 4 6 10 11 8 6 6 6 6 7 9 9 8 9 9 9 12 15 20 25 26 28 30 31 33 33 31 30 28 26 25 23 20 18 16 15 16 16 18 20 20 22 23 22 22 21 19 19 19
14 15 17 18 19 21 22 21 20 19 19 18 17 17 16 15 14 16 14 13 14 13 10 7 3 2 1 0 2 2 2 5 10 13 13 10 7 8 9 8 6 6 6 5 6 7 9 10 9 10 10 9 10 12 14 17 21 25 27 29 32 32 31 35 34 29 26 26 27 24 20 19 16 14 13 15 17 20 21 21 23 22 21 20 19
15 14 16 18 18 20 21 21 20 20 19 19 17 17 17 15 16 17 15 14 16 14 13 9 4 5 5 3 2 2 1 5 10 12 13 12 11 10 8 5 5 5 5 5 6 7 7 8 9 9 10 10 11 12 12 13 15 19 23 26 30 29 31 36 36 31 29 31 33 30 27 26 19 15 15 15 14 17 19 20 22 23 23 21 20
16 15 16 18 18 19 20 21 21 20 19 18 18 19 18 16 17 19 16 15 17 15 15 12 6 7 8 6 4 2 3 7 9 10 11 11 12 12 10 7 5 5 5 5 5 6 6 7 8 9 9 10 12 13 14 13 13 15 19 22 26 29 32 36 35 32 32 33 34 34 32 30 24 18 17 18 17 15 16 19 21 22 23 22 21
17 17 17 17 18 19 20 21 21 20 19 18 19 19 18 17 19 19 17 17 19 16 16 15 11 10 9 6 5 4 6 7 7 8 9 10 11 12 12 11 9 6 5 5 6 6 6 7 8 9 10 10 12 14 14 15 16 17 18 19 23 28 33 36 34 33 33 33 35 37 35 33 30 24 20 19 19 19 17 17 19 21 23 23 23
17 17 18 18 18 19 20 21 20 19 19 19 20 19 17 18 19 19 18 19 20 19 18 18 16 13 11 10 9 7 7 6 6 7 8 9 10 11 11 11 11 11 9 8 8 7 7 9 9 9 10 11 12 14 16 17 20 22 21 20 22 27 31 33 33 33 34 36 38 37 36 36 34 29 26 23 20 20 22 20 17 17 20 21 22
17 17 18 18 18 19 20 20 20 19 19 20 20 19 18 18 19 19 19 20 21 21 20 19 18 16 14 13 12 10 8 8 8 9 9 9 9 10 11 11 11 12 13 13 12 12 12 11 11 10 10 11 11 13 15 17 19 21 22 23 24 26 29 32 33 34 36 37 39 40 39 38 37 35 33 29 24 22 22 24 23 18 18 19 19
17 17 18 18 19 20 20 20 19 19 21 23 21 20 18 18 18 19 20 21 22 23 21 21 20 18 17 15 14 12 10 9 9 9 10 10 9 10 10 11 11 12 13 13 13 15 16 16 15 13 11 11 12 13 14 15 16 18 20 23 24 26 28 30 32 33 35 35 38 41 41 39 38 36 34 33 31 29 25 25 25 22 20 19 19
17 18 18 19 20 20 21 20 19 20 23 23 21 20 19 18 19 19 21 21 22 23 22 21 21 19 18 17 15 14 12 10 10 10 11 11 10 10 10 10 11 11 12 13 15 17 19 19 18 17 15 14 14 16 17 17 17 17 19 22 24 26 27 28 30 31 32 32 34 39 42 43 42 40 38 37 36 35 32 28 27 25 24 22 19
18 19 20 21 21 21 21 21 21 21 22 22 21 21 20 19 19 19 20 21 21 22 21 21 21 20 19 18 17 15 14 12 11 11 11 11 11 11 11 12 12 14 15 17 19 20 21 22 22 21 20 19 18 18 19 21 20 19 19 21 23 25 27 28 30 32 33 32 32 34 37 41 44 43 42 41 38 38 37 32 28 27 26 25 21
19 19 20 20 22 21 21 21 21 21 20 19 19 20 20 18 18 18 18 19 20 20 20 20 20 20 20 19 17 16 15 14 13 13 12 11 12 12 13 14 15 16 19 20 22 23 25 26 27 27 25 23 21 20 20 22 24 23 21 21 22 24 27 29 30 32 34 35 34 35 35 37 41 43 44 44 42 41 42 38 33 29 26 25 23
18 19 19 19 21 22 21 20 20 19 20 19 18 19 19 18 17 16 15 17 19 19 20 20 20 21 20 19 18 17 16 15 14 14 14 13 14 14 14 16 17 18 20 22 24 26 28 29 30 31 29 26 24 22 22 22 24 26 24 22 22 23 26 29 31 32 33 34 35 37 38 37 38 40 42 45 44 41 42 42 38 34 28 25 25
18 18 19 19 20 21 21 20 20 19 19 19 19 19 20 17 16 15 12 16 18 18 19 19 20 22 21 19 19 18 17 16 16 15 15 15 15 16 17 18 20 21 21 23 25 26 28 28 29 31 29 25 22 21 22 23 23 25 26 24 22 21 22 26 30 32 33 34 33 34 37 37 36 38 41 43 44 43 43 44 43 40 35 30 29
18 19 19 19 19 20 20 20 20 19 19 18 17 19 21 18 16 14 12 15 17 17 18 19 21 22 21 20 20 19 18 17 17 17 16 17 17 18 19 21 21 22 23 23 23 25 26 24 25 26 23 19 18 18 20 22 22 23 27 28 25 22 22 24 26 29 33 35 33 33 35 36 36 37 39 41 43 45 44 44 45 44 40 38 35
18 19 19 19 19 20 20 20 20 19 19 18 16 20 23 20 16 15 13 14 17 17 18 20 21 22 22 21 21 20 19 18 18 18 18 18 19 20 21 22 23 24 23 19 16 20 23 20 20 20 17 15 16 17 19 20 21 23 25 28 28 25 23 24 24 25 29 33 35 35 34 35 36 37 38 40 42 45 46 46 47 46 43 41 39
17 18 19 19 20 20 21 20 21 19 18 18 17 21 23 20 17 15 13 14 17 18 18 20 21 22 23 22 21 20 19 19 19 19 19 20 21 22 23 24 23 22 20 17 16 19 20 19 18 18 17 17 16 17 18 20 21 22 23 26 28 27 25 25 25 25 26 30 33 36 36 36 36 36 37 38 39 42 46 49 50 49 46 42 41
17 18 18 19 20 20 20 20 21 20 20 20 19 20 21 19 16 15 13 14 17 17 18 20 21 22 23 23 22 21 20 20 20 20 21 21 22 23 23 20 18 17 17 17 19 19 18 19 19 19 18 18 17 18 18 18 21 23 23 24 26 27 27 26 26 25 26 28 30 33 36 36 34 33 35 37 38 41 44 48 51 51 49 46 45
17 18 18 18 19 20 20 21 21 18 18 19 19 21 21 19 16 15 14 14 17 17 18 19 21 23 23 23 22 21 20 20 19 20 21 21 22 22 20 16 16 16 17 17 18 19 19 19 19 19 18 18 18 19 18 19 21 23 24 25 25 26 28 28 27 26 26 28 29 31 33 34 34 33 35 37 38 38 41 46 49 51 53 51 48
18 19 19 19 19 20 20 21 19 17 15 16 18 20 19 18 17 16 15 15 16 16 16 18 20 22 23 22 22 21 20 19 19 20 21 21 21 20 18 16 17 17 18 19 19 20 20 20 20 19 18 18 18 18 18 20 22 22 23 25 26 27 29 31 31 29 28 28 30 32 32 32 34 35 37 37 37 37 40 44 47 50 53 54 51
19 20 20 20 20 20 20 19 17 15 15 16 17 17 16 16 16 15 15 14 15 15 16 17 18 19 20 21 20 19 18 19 19 20 21 21 20 19 18 17 18 18 19 20 20 20 21 21 20 20 19 19 19 19 19 21 22 21 21 24 27 29 31 34 35 35 33 30 29 31 33 32 33 35 37 37 38 40 41 42 45 46 47 50 51
22 22 21 22 22 21 20 18 17 17 18 18 16 14 14 15 14 14 14 14 15 16 17 16 16 16 17 18 18 17 17 18 19 20 20 20 20 20 19 18 18 19 20 21 20 20 20 20 20 20 20 20 20 20 21 21 21 21 22 24 27 29 31 34 36 39 39 37 33 31 32 33 33 35 36 38 40 41 42 42 44 45 44 45 47
23 24 24 23 22 22 21 19 18 19 18 16 15 14 14 15 14 14 14 15 16 17 17 16 15 14 14 15 15 16 17 18 19 19 20 21 20 20 19 18 18 19 20 21 21 21 22 23 22 21 21 22 21 21 21 22 22 22 23 26 26 28 31 33 35 38 40 42 41 38 34 32 35 37 36 37 39 40 41 42 43 47 47 45 42
26 26 26 26 24 23 21 19 18 18 16 15 15 15 15 15 14 14 14 15 17 18 17 16 16 15 13 12 13 14 16 18 19 19 21 21 20 19 18 17 18 20 20 21 22 22 22 23 22 22 23 23 22 22 22 22 22 22 23 25 26 27 30 33 35 37 39 41 44 45 41 37 38 40 37 36 37 38 41 43 44 45 44 42 40
25 26 27 27 26 24 22 20 19 17 16 16 15 15 16 15 14 14 15 16 17 17 17 16 16 15 13 12 13 14 16 18 19 19 19 18 17 17 17 17 18 20 20 21 21 21 21 21 21 22 22 22 21 22 22 22 22 22 22 24 25 26 30 34 36 37 38 40 42 46 48 45 42 40 38 37 37 38 40 41 42 43 44 43 43
23 25 28 27 25 24 22 21 20 18 18 18 17 16 17 15 14 15 16 16 16 16 16 15 14 13 12 12 13 14 15 16 15 15 15 15 16 17 17 18 19 20 20 20 21 21 21 22 22 23 22 21 22 22 22 23 24 23 22 22 23 24 28 32 35 36 37 39 41 43 48 50 48 45 42 40 39 39 39 39 40 43 47 47 45
28 27 27 27 26 23 22 21 20 19 20 18 17 17 16 15 16 16 17 16 16 15 15 14 13 12 11 11 10 11 12 12 12 12 13 15 16 17 18 18 19 20 20 21 21 22 22 23 24 25 24 22 22 23 25 29 30 29 27 25 23 24 26 29 32 35 36 38 40 42 44 47 48 48 46 45 44 43 42 41 40 41 44 46 47
31 33 31 27 26 25 23 21 20 20 20 18 17 16 15 15 17 17 17 16 15 15 15 13 12 11 10 9 9 10 10 10 11 12 14 15 16 17 18 18 20 21 21 22 22 22 23 23 23 24 24 23 23 25 28 33 35 35 34 32 29 29 30 31 32 34 35 37 39 41 42 43 45 46 47 47 47 47 46 45 43 42 43 45 46
33 33 34 30 26 25 22 20 20 19 19 18 16 15 15 16 17 17 16 16 15 14 14 12 11 10 9 9 9 9 9 10 11 14 16 16 16 18 18 19 21 21 21 22 23 23 24 24 23 25 25 25 25 27 30 34 36 37 37 36 34 32 32 34 34 34 35 36 37 39 40 41 42 43 43 43 45 46 48 49 47 46 46 46 44
36 34 35 34 26 21 20 19 19 19 18 18 17 16 15 16 17 16 16 16 15 14 12 11 10 9 8 8 8 8 9 10 11 14 16 16 16 18 19 21 22 22 21 22 22 23 23 23 24 26 26 27 27 28 30 34 36 37 37 38 38 35 33 36 37 37 36 36 36 37 38 39 40 40 40 40 41 42 44 48 50 48 48 47 46
33 33 34 32 23 19 19 19 18 17 16 16 15 15 15 16 16 16 16 16 15 13 11 10 9 8 7 8 8 9 10 11 12 14 16 16 18 19 21 23 24 23 22 22 23 23 23 23 23 25 25 27 28 28 29 32 35 37 38 39 41 40 37 37 39 40 39 38 37 37 37 38 38 37 37 38 39 39 39 42 47 50 50 49 48
26 29 30 27 22 19 18 18 17 15 15 14 13 13 14 16 16 16 16 15 13 12 11 10 8 7 7 7 8 9 10 12 12 14 16 18 19 21 22 24 24 23 22 23 23 23 23 22 23 24 25 27 28 28 30 32 34 36 37 38 41 43 40 38 39 41 41 40 39 38 38 38 37 35 36 37 37 37 38 39 42 47 51 52 50
24 27 25 22 20 18 17 17 16 15 14 13 13 14 14 16 16 16 15 14 13 11 10 9 8 7 7 7 8 9 11 12 13 15 17 19 21 22 23 23 22 21 22 23 23 23 23 23 23 25 27 28 29 29 31 33 34 35 36 37 40 42 41 40 40 41 41 42 41 40 40 40 39 38 37 37 36 37 38 39 40 43 47 50 51
21 22 21 19 18 16 16 16 14 13 13 11 12 14 15 16 17 16 14 13 12 10 9 8 7 6 6 7 8 10 11 12 14 15 18 20 22 23 24 23 22 22 23 24 23 23 23 24 25 25 27 29 29 29 31 34 35 35 37 39 40 40 40 41 41 41 41 42 43 42 42 40 41 42 41 37 36 37 38 40 41 39 41 43 46
21 21 19 17 16 15 14 14 13 11 11 10 12 15 16 17 17 15 14 13 11 10 8 6 6 5 6 7 8 10 12 13 14 16 19 21 23 24 24 22 21 23 24 23 23 23 24 25 25 25 27 29 31 30 31 35 37 37 38 41 42 42 42 41 41 41 41 42 43 44 44 42 42 44 44 40 36 36 38 41 40 37 39 40 42
21 20 18 16 16 14 12 12 11 10 11 11 13 16 17 17 17 15 14 12 10 9 7 5 4 5 6 8 8 10 12 13 14 16 18 20 22 23 23 22 21 22 23 22 22 24 25 25 26 27 28 30 32 32 32 35 37 37 37 39 41 42 43 43 41 40 40 41 42 43 45 46 45 45 44 42 39 36 38 41 40 38 39 42 43
19 17 16 15 13 12 10 9 9 9 10 12 14 17 18 16 15 14 12 11 9 7 5 3 4 4 6 7 8 10 12 13 14 16 17 19 20 21 22 22 21 21 22 22 22 24 26 27 26 26 27 29 32 33 35 36 37 36 36 38 40 42 43 43 42 41 40 40 41 40 42 45 46 48 49 47 41 38 38 40 41 40 40 42 43
15 15 14 11 10 10 9 8 8 9 10 13 16 18 17 16 14 13 11 10 8 6 3 2 3 4 5 7 9 10 12 13 14 14 15 17 19 20 20 21 21 20 21 22 24 25 26 26 25 26 29 31 33 34 36 37 36 35 36 38 40 43 43 43 43 43 42 40 40 39 38 40 42 47 52 52 45 40 40 40 41 43 42 43 44
11 13 12 9 8 9 8 8 8 9 11 14 17 18 17 15 14 12 10 9 7 4 2 1 2 4 6 8 9 10 11 12 13 14 15 17 19 20 19 19 20 20 21 23 26 26 25 25 26 29 33 35 35 35 35 34 34 34 36 36 38 39 41 42 43 45 43 41 39 38 36 36 37 41 47 52 49 42 40 40 38 40 42 41 42
7 10 11 9 8 8 8 8 8 9 12 16 18 18 17 15 13 11 9 8 6 4 2 1 2 4 6 8 9 10 11 12 13 14 15 17 20 21 19 19 19 20 21 23 24 25 24 25 28 31 35 37 36 34 32 32 33 35 34 33 33 33 36 39 42 44 43 40 37 37 36 34 33 33 37 46 51 46 39 37 36 38 41 40 39
9 10 10 9 8 7 8 9 8 10 14 17 19 18 16 14 12 10 9 7 5 3 2 0 3 5 6 8 9 10 11 12 13 14 15 17 19 20 19 18 18 19 21 22 22 23 25 27 31 35 37 40 39 35 32 32 32 33 31 29 30 30 32 37 41 43 43 40 37 36 34 31 29 28 28 37 48 48 40 36 36 39 42 40 37
9 9 8 7 7 7 8 8 8 11 15 18 19 18 16 14 12 10 8 7 5 3 2 1 3 4 6 7 9 10 12 13 14 14 15 16 18 19 19 19 19 20 21 21 21 23 26 30 34 37 40 43 43 39 36 34 32 30 28 27 28 29 31 35 41 42 42 41 38 34 31 29 29 29 29 32 41 46 43 39 38 39 40 38 35
9 8 7 7 6 7 8 8 9 12 15 18 18 17 15 14 12 10 8 6 5 3 2 1 2 4 6 7 9 11 12 14 14 14 14 15 17 19 20 21 21 21 21 21 22 24 28 30 34 37 40 43 44 43 40 37 33 29 27 26 26 28 29 31 36 39 39 38 36 34 32 31 31 31 32 34 38 42 44 42 40 39 39 37 34
9 8 7 7 6 7 8 8 9 12 15 18 18 16 15 13 11 9 8 6 5 3 2 1 3 4 6 8 10 11 13 14 14 14 14 15 17 18 20 21 23 24 24 24 24 26 29 30 33 37 40 42 43 44 42 39 34 29 25 23 23 23 23 25 31 34 35 34 34 34 33 31 30 30 31 33 36 40 43 43 41 39 36 33 32
8 7 7 7 6 7 8 9 10 12 15 17 17 16 15 13 11 10 8 6 4 4 3 2 3 4 7 9 10 11 13 14 14 15 15 15 16 19 21 24 26 28 28 28 27 27 28 30 33 37 39 41 42 43 43 40 35 29 24 21 20 19 18 22 28 32 32 33 34 35 34 32 29 29 29 31 34 38 41 41 41 38 33 31 30
7 6 6 5 5 6 7 9 11 13 15 17 17 16 15 13 12 10 9 6 4 5 4 3 3 5 8 10 9 10 12 14 14 15 15 15 16 20 23 25 27 29 29 27 26 26 27 28 30 33 35 38 41 42 42 39 33 27 22 19 18 16 14 18 29 34 33 33 35 36 36 35 32 30 30 32 33 33 34 37 38 36 33 33 34
5 6 5 4 5 6 8 10 12 13 15 17 17 16 15 13 12 10 9 6 4 3 2 2 3 4 8 11 10 10 13 14 15 16 16 15 16 19 22 25 27 28 27 24 23 24 25 25 27 29 31 33 36 38 39 37 32 24 17 15 15 14 12 15 25 32 32 33 35 36 36 36 34 31 31 33 35 34 33 34 36 35 35 37 38
6 6 5 3 5 7 9 11 13 13 15 16 17 16 15 14 12 10 8 6 4 3 1 2 4 5 9 11 10 11 13 14 15 17 17 16 16 16 19 23 26 27 27 24 22 23 24 24 25 27 29 30 32 34 35 34 30 23 14 10 10 12 13 14 21 28 30 31 34 35 34 34 33 32 34 36 37 36 36 36 36 36 37 39 41
Wind_Direction
231 222 213 203 198 194 189 188 188 189 190 189 188 187 187 190 198 215 228 223 203 156 161 155 67 38 29 29 18 19 12 5 356 323 317 290 284 286 273 267 264 264 260 256 253 249 247 246 248 249 246 243 240 239 240 241 238 239 242 239 240 247 242 238 238 227 229 241 240 240 236 230 227 221 219 218 220 223 224 226 228 230 231 232 231
236 228 213 203 199 194 191 190 191 194 195 193 194 194 193 192 192 212 232 233 227 213 200 227 282 334 1 5 9 19 7 5 2 323 315 311 299 288 280 273 265 263 259 256 255 254 256 253 253 253 251 248 245 243 242 241 241 241 243 240 233 240 243 239 238 231 228 236 235 238 239 234 232 229 226 223 221 221 221 222 225 229 230 229 232
239 227 207 201 199 195 193 192 193 197 199 198 199 198 198 197 192 206 223 227 239 239 199 222 276 300 318 331 347 1 358 5 11 357 338 330 316 303 292 271 261 259 257 268 268 263 265 260 255 254 254 252 246 245 244 242 242 241 242 242 235 236 241 241 240 238 234 233 233 236 237 234 234 231 228 226 224 222 222 222 223 225 227 227 227
236 216 197 198 200 197 194 193 195 197 199 202 203 200 201 202 195 205 218 218 235 248 235 252 280 293 306 320 336 353 6 15 18 9 345 324 320 306 286 270 264 262 263 274 279 278 275 270 264 254 253 258 252 247 246 244 244 243 241 240 238 238 238 239 238 234 229 228 229 235 235 234 238 234 228 229 229 224 223 224 224 223 224 226 224
225 205 198 200 199 197 196 196 195 197 201 202 205 204 202 203 200 208 222 226 239 255 257 265 279 287 316 339 358 11 23 24 14 6 353 338 311 282 289 289 280 275 274 269 269 266 256 256 267 261 246 249 259 257 250 247 244 244 242 239 239 239 235 234 233 228 227 226 224 230 234 235 246 244 227 226 229 225 225 224 223 224 221 222 225
219 210 204 200 196 196 197 197 196 198 202 203 205 208 206 204 204 211 219 230 246 258 262 262 235 209 249 27 30 23 28 4 0 2 3 357 331 299 296 302 298 289 279 271 273 262 245 239 243 252 251 243 248 257 259 255 247 244 243 239 237 236 235 236 237 236 237 234 225 221 225 231 251 271 251 233 224 219 224 225 223 224 222 222 224
213 214 205 197 195 195 195 196 197 198 200 203 205 210 210 204 207 217 218 231 250 256 260 263 235 234 258 255 276 323 322 338 349 356 4 6 355 339 322 306 296 294 288 278 276 271 262 256 246 245 255 253 243 244 253 259 256 252 248 242 239 237 238 239 239 239 242 242 232 222 222 226 242 276 277 262 240 217 215 220 223 222 222 224 224
205 209 206 198 195 194 194 193 194 196 197 201 205 212 216 206 210 224 221 232 254 258 260 261 231 240 270 277 279 292 299 323 340 351 1 4 4 1 351 335 304 287 287 285 280 277 275 272 265 257 256 259 255 251 252 254 258 259 254 246 241 239 240 241 241 241 242 242 235 226 223 222 229 249 263 268 264 246 224 216 221 224 222 225 227
202 204 204 200 196 193 191 190 191 195 195 198 208 217 220 213 219 232 229 236 255 261 262 261 248 247 261 261 258 275 301 322 334 342 352 354 356 359 359 358 348 330 308 287 281 278 272 266 264 265 264 261 262 262 259 254 249 248 249 247 243 240 240 241 241 239 239 239 234 228 224 220 221 232 245 257 263 263 252 227 215 217 220 224 227
200 201 201 199 195 190 188 189 191 194 194 199 212 221 221 221 228 237 238 244 256 261 260 261 260 255 253 255 258 267 288 305 311 318 331 338 343 347 350 357 357 351 344 329 317 307 290 274 262 263 267 262 260 260 258 253 244 237 238 241 241 242 242 241 240 238 239 239 234 230 227 225 224 224 230 241 252 260 263 254 236 225 223 223 223
201 200 198 195 193 190 188 190 190 190 195 203 215 222 221 226 234 240 244 247 255 261 260 259 260 256 252 257 261 263 272 285 295 305 314 321 327 332 335 341 344 344 345 344 340 333 324 307 285 269 263 260 261 262 260 260 253 243 241 239 238 241 244 244 242 241 241 238 234 231 232 232 230 226 226 232 241 251 259 262 260 251 235 222 222
203 202 199 194 191 190 188 190 188 191 205 211 216 223 225 230 237 242 246 247 252 260 260 257 256 253 253 256 257 259 264 272 282 292 299 304 310 316 323 328 331 333 336 336 333 330 329 326 314 294 274 261 259 258 255 258 261 258 254 247 240 238 242 246 245 243 242 239 236 234 233 233 231 232 235 238 243 248 251 259 263 258 243 229 227
210 206 204 200 197 193 190 192 192 197 211 216 218 224 229 236 243 246 246 247 252 258 260 258 254 252 251 251 253 257 261 265 273 282 289 294 300 306 311 315 319 319 320 319 317 318 321 322 319 309 294 277 265 257 249 243 246 253 258 255 248 240 239 243 246 245 244 243 241 238 235 234 233 235 239 242 246 248 247 253 261 262 255 246 236
219 214 210 207 205 201 198 199 197 199 210 216 220 226 230 237 246 249 246 246 253 260 262 259 254 252 251 249 251 255 260 265 270 276 281 286 290 296 301 304 307 308 308 308 309 311 312 311 310 306 300 290 278 269 259 249 245 248 251 253 253 248 241 240 244 246 245 243 242 241 238 237 237 239 239 240 243 244 243 246 254 262 264 259 248
220 220 217 210 205 204 204 204 201 202 206 211 219 227 232 236 245 250 245 245 253 259 260 258 253 252 251 249 250 254 260 265 269 273 277 280 284 289 295 297 301 303 305 306 306 306 306 306 304 302 299 291 281 274 269 262 257 254 249 245 246 249 245 241 242 246 246 243 241 241 241 241 240 240 241 241 241 240 242 244 246 253 263 267 259
220 220 218 212 205 205 206 205 205 205 205 206 212 226 234 233 240 252 244 235 247 256 257 255 251 251 251 249 249 253 257 262 266 270 274 277 282 288 291 294 298 299 300 302 303 305 305 304 303 300 297 289 278 271 268 266 263 260 255 248 244 246 249 245 242 245 248 248 245 243 243 243 242 240 241 241 239 237 241 246 244 244 251 265 266
224 221 219 215 208 204 204 205 206 206 209 208 208 222 233 230 235 252 240 222 238 255 255 250 247 249 251 248 249 252 254 259 264 267 272 277 281 286 290 294 296 296 297 298 299 302 302 299 298 295 290 283 274 268 264 262 261 258 257 254 247 245 250 251 248 246 247 249 249 246 244 243 241 241 240 239 237 236 240 245 244 242 242 250 260
225 222 219 216 209 203 203 206 207 210 214 209 207 221 233 230 230 245 245 229 238 251 251 247 245 245 248 247 248 251 254 257 262 266 272 278 283 288 292 295 296 294 293 293 294 298 297 293 292 290 284 275 270 268 263 260 258 256 255 254 251 247 244 246 249 250 248 247 247 248 246 243 242 242 241 237 234 234 238 241 241 242 240 240 248
223 219 217 214 210 207 206 209 212 216 214 207 212 229 233 229 227 240 247 229 230 243 245 244 243 241 244 247 247 250 255 258 262 268 274 280 287 292 294 295 294 292 290 287 287 292 291 285 283 284 278 271 269 268 266 264 261 258 256 254 252 250 246 243 243 246 249 248 246 246 246 246 246 244 242 239 236 236 238 239 241 242 240 238 240
218 216 215 211 209 210 210 212 216 216 208 207 224 233 230 229 229 239 241 219 222 239 244 242 241 240 241 245 248 251 254 260 266 271 278 284 290 293 296 298 297 293 289 284 280 283 283 278 276 276 274 273 271 268 268 269 265 261 258 255 252 249 249 250 246 244 247 249 248 246 244 247 247 243 239 238 238 238 238 238 240 242 241 239 236
215 215 215 211 209 212 213 214 220 216 201 206 228 237 233 231 232 241 245 228 229 242 242 239 238 239 243 244 246 251 255 262 270 276 284 290 293 296 299 299 292 284 281 280 279 278 276 275 274 273 272 271 269 268 268 268 267 265 259 255 253 249 248 250 250 247 245 244 247 247 245 245 245 241 238 239 240 241 241 238 239 240 239 238 236
214 215 216 215 213 213 215 219 223 216 196 201 229 239 234 232 234 244 247 232 232 242 240 235 235 239 243 244 245 251 257 264 273 281 289 293 294 297 298 290 280 278 277 278 279 278 276 275 274 273 271 269 268 267 267 264 264 266 263 258 253 250 248 247 247 249 248 243 243 246 246 244 244 243 242 242 240 240 242 240 237 238 237 237 237
217 216 216 220 219 216 222 224 216 203 191 200 224 229 225 230 236 242 244 232 232 241 232 226 231 236 240 242 245 252 259 268 277 285 290 292 293 293 288 280 280 281 279 277 277 276 275 274 273 272 271 270 269 267 265 263 262 261 262 261 257 252 248 245 242 244 247 246 245 245 246 244 244 244 244 244 242 239 239 239 237 238 237 237 238
221 222 219 219 221 221 226 220 200 195 196 197 210 217 221 235 237 234 237 232 228 227 217 214 223 231 237 242 247 254 263 272 280 286 290 291 289 286 280 277 279 279 276 276 274 272 272 271 271 272 271 270 269 267 266 264 262 261 260 260 259 256 252 247 244 241 240 241 244 246 246 245 243 244 244 244 243 240 238 236 235 237 237 237 238
226 226 223 220 218 218 223 216 204 212 211 196 197 211 226 239 235 225 228 222 213 207 202 204 211 221 234 243 248 257 266 275 283 288 290 289 285 283 279 276 277 277 276 274 272 270 270 271 270 271 271 270 269 267 266 264 261 261 259 259 260 258 255 251 248 246 242 239 240 243 244 245 244 244 244 244 243 241 240 237 236 238 239 238 235
233 228 223 221 218 215 219 220 220 226 220 202 198 204 218 232 228 221 224 216 203 199 198 200 203 210 225 239 249 260 269 279 286 288 289 289 286 284 281 278 277 278 276 274 272 271 270 271 270 270 270 270 269 266 265 264 262 260 258 258 258 257 256 253 250 249 247 244 243 242 242 244 245 243 243 243 243 242 242 241 241 241 238 235 231
232 230 224 218 217 216 218 220 223 228 222 206 200 195 198 217 223 219 219 211 201 202 203 201 204 210 217 229 244 260 273 282 287 289 290 290 288 284 281 279 279 279 276 275 274 271 269 269 269 269 268 268 268 267 265 264 261 260 258 257 255 255 255 254 252 251 249 247 247 245 242 242 242 242 242 243 243 242 243 242 242 240 234 230 229
233 229 226 219 216 216 216 219 222 225 216 203 199 190 185 203 219 210 204 207 207 207 205 203 207 216 221 231 246 262 276 284 289 291 291 288 284 281 280 280 280 278 277 275 275 272 270 269 268 268 268 268 267 266 264 264 262 260 259 257 256 255 254 254 254 252 249 247 246 246 245 243 240 240 243 245 243 242 243 243 241 238 237 236 235
257 238 228 221 220 217 212 218 221 215 205 198 194 186 180 190 201 195 195 208 213 206 200 201 207 214 223 238 255 269 280 287 288 286 284 281 280 281 281 282 281 280 278 277 275 274 271 270 270 269 268 267 267 265 264 264 264 261 259 258 257 256 256 256 255 254 251 248 245 244 245 244 242 240 239 240 241 241 242 241 240 241 243 241 235
281 267 244 225 221 220 216 220 216 202 196 195 190 184 181 182 183 185 191 203 206 200 197 200 205 212 223 237 252 264 273 278 274 272 276 279 282 284 283 284 283 281 281 279 276 273 271 269 270 270 269 267 265 265 267 268 267 263 259 257 257 256 256 256 255 254 253 250 247 244 244 245 244 242 238 236 236 237 238 239 240 243 244 241 235
270 274 265 242 223 222 224 215 201 195 196 196 191 187 185 181 178 181 187 192 195 195 196 198 203 210 222 235 247 254 258 261 266 274 281 282 282 284 284 285 285 284 283 282 278 275 272 271 270 269 268 267 265 264 268 270 270 268 263 259 256 255 254 254 254 254 254 253 250 246 244 244 245 244 241 238 236 234 234 235 238 241 242 242 239
251 256 261 255 237 225 219 201 190 196 199 195 192 190 188 184 180 180 183 185 187 190 193 198 204 212 224 237 248 253 253 259 273 283 283 281 281 283 284 286 287 286 285 284 282 279 276 274 272 271 269 267 266 265 265 268 269 269 267 264 260 257 255 254 252 252 252 253 252 250 246 243 243 244 244 243 242 239 235 233 235 239 242 243 241
242 239 246 253 244 219 203 192 191 196 197 194 195 195 193 188 183 181 182 183 184 188 192 198 205 215 228 241 250 254 257 267 280 284 280 279 281 283 285 286 287 288 288 287 284 282 280 277 275 274 271 268 267 266 264 265 266 265 265 264 262 259 256 255 253 251 250 249 249 250 249 244 241 242 242 242 244 244 241 237 235 236 240 242 242
236 231 236 240 228 203 190 188 190 190 191 193 194 194 194 188 184 184 183 183 187 191 195 199 206 218 232 247 254 256 264 274 281 282 280 280 282 284 285 285 285 288 289 288 287 284 282 280 278 276 274 271 269 267 262 260 261 261 262 262 262 260 257 255 254 252 250 248 246 245 247 245 241 240 240 240 241 243 244 243 241 238 237 238 240
239 234 232 222 203 187 179 178 181 183 183 187 187 188 189 187 186 184 182 185 190 194 197 201 207 221 235 248 256 260 269 277 279 281 282 282 284 286 285 284 284 287 289 289 288 287 284 282 281 280 278 274 272 270 265 261 260 261 261 261 261 260 257 255 254 253 250 248 245 243 242 242 240 239 238 238 239 239 240 242 245 243 238 236 237
238 230 217 197 180 172 168 172 180 181 182 189 193 192 191 189 187 183 182 187 191 194 202 203 207 224 239 249 260 266 272 278 280 282 284 285 286 287 286 286 287 288 290 290 289 288 287 285 283 281 279 277 276 273 270 267 265 264 263 262 261 259 257 255 254 253 251 248 246 243 240 239 238 235 233 234 237 238 238 239 242 245 243 238 237
222 203 183 171 169 168 167 172 179 180 187 199 199 195 193 189 185 184 186 188 189 195 202 204 209 228 243 254 267 273 275 279 282 284 285 286 287 287 286 288 291 292 293 293 291 291 290 288 286 284 281 279 278 276 273 271 268 265 261 260 260 259 257 255 254 252 251 249 246 243 240 239 238 233 227 225 231 237 239 239 239 241 244 240 235
200 173 162 162 166 168 170 174 178 184 193 202 201 195 191 186 184 186 189 190 195 201 200 202 216 236 253 263 272 277 278 282 283 284 285 285 286 288 288 289 292 295 295 295 294 294 293 291 289 287 285 283 281 279 275 272 270 267 262 258 258 259 257 256 254 252 250 248 246 245 242 238 236 233 227 222 224 232 238 239 237 237 238 236 232
182 167 168 168 166 168 170 173 181 192 198 205 201 193 187 185 186 188 191 195 201 201 194 200 231 253 267 273 278 280 280 282 284 285 286 286 287 289 289 290 295 297 297 297 297 297 296 294 292 291 290 287 285 282 278 276 275 272 267 262 259 259 257 256 255 252 250 248 246 246 246 241 234 229 226 221 219 227 236 238 236 235 235 233 231
173 172 172 168 169 175 177 179 190 197 199 201 195 187 184 185 186 187 191 195 195 190 189 216 256 274 280 281 282 282 281 281 284 285 288 290 291 292 291 293 298 299 299 300 300 299 297 296 296 296 295 294 292 288 283 281 278 273 269 265 262 260 259 257 255 251 249 248 246 244 246 245 236 227 222 217 215 220 230 234 234 232 231 231 230
170 167 164 166 176 182 180 185 190 193 196 193 188 185 184 184 184 186 189 189 182 178 192 240 279 290 286 280 279 279 280 282 285 287 290 292 295 295 295 298 301 302 302 303 303 301 300 298 298 298 299 301 301 295 288 284 279 270 266 265 263 261 260 258 255 250 246 245 244 242 242 243 240 232 224 216 212 215 221 227 233 232 229 231 234
152 161 169 176 179 174 174 182 185 188 192 188 184 183 183 182 180 183 187 184 172 169 191 244 288 287 280 280 281 282 284 287 289 290 293 296 296 296 299 304 304 305 306 306 306 304 301 300 300 301 302 305 306 300 291 283 277 272 269 268 266 262 258 256 252 247 243 242 242 240 241 242 242 240 231 218 212 215 218 223 233 234 228 230 235
153 175 183 182 176 174 179 185 189 191 189 186 183 181 181 180 178 182 188 181 162 154 168 222 286 286 283 284 289 291 291 293 294 294 297 300 298 296 301 307 305 306 308 308 308 307 304 303 304 305 307 311 312 307 295 284 280 280 278 275 271 263 254 249 247 244 240 239 241 241 241 240 240 243 238 222 213 214 218 223 231 233 228 229 234
175 174 172 178 182 179 177 178 185 189 186 184 182 180 179 181 182 185 191 184 163 146 128 349 298 296 293 292 296 299 298 298 299 299 301 302 299 300 306 309 307 306 307 308 309 309 307 308 310 310 314 319 320 314 303 296 295 293 288 283 278 270 255 243 241 242 240 236 237 239 240 238 234 237 237 225 215 214 219 226 231 229 226 226 229
171 163 164 180 182 173 174 179 184 186 184 182 180 179 180 185 187 188 189 183 168 144 98 26 316 308 305 304 308 307 304 304 302 301 303 304 302 304 310 313 312 309 306 305 307 310 312 314 315 316 318 322 324 320 314 312 309 304 296 288 282 276 262 244 237 239 239 234 231 233 236 235 232 231 231 224 218 217 221 227 230 226 222 222 225
165 164 167 174 172 171 178 184 184 184 183 181 180 181 185 187 186 187 188 184 170 146 111 22 337 330 324 321 320 313 310 310 307 304 304 305 304 306 310 315 317 314 309 304 304 312 318 319 318 319 320 322 324 324 323 322 320 310 299 290 283 276 266 249 237 234 234 230 226 226 231 232 231 230 229 224 219 217 221 225 228 225 222 222 223
158 159 163 165 172 179 182 185 188 186 183 180 178 181 186 184 180 182 185 177 158 136 116 52 7 354 343 337 329 322 320 319 314 308 306 307 309 307 309 317 319 317 316 312 307 314 322 324 322 321 321 322 323 325 326 326 325 317 302 291 285 279 265 247 235 229 226 223 221 223 229 234 234 231 229 225 220 217 217 220 222 222 221 222 223
149 153 159 162 175 189 189 188 187 183 182 182 179 181 182 175 171 178 181 170 145 120 108 68 28 14 359 347 336 330 329 326 321 315 310 309 311 307 309 317 320 320 321 318 313 316 324 327 324 321 321 322 323 326 328 328 327 322 309 293 286 284 268 241 226 219 216 216 219 223 230 233 230 224 218 216 214 210 208 208 211 215 218 218 217
143 148 156 160 175 190 188 184 180 178 182 183 180 181 180 171 169 178 179 167 139 112 102 61 33 26 8 353 339 333 335 331 327 324 316 310 309 310 314 319 320 321 324 320 314 317 323 325 323 320 320 322 323 325 328 329 328 324 311 294 285 287 275 239 220 213 212 215 219 224 228 228 222 216 212 210 208 205 202 201 202 206 209 209 208
157 162 160 157 173 180 180 178 172 172 180 181 179 181 179 172 174 181 175 163 146 131 115 39 26 10 357 353 343 332 333 333 332 330 324 316 314 317 322 322 320 325 330 324 317 318 320 321 321 319 318 320 321 324 328 331 332 328 312 291 282 278 268 242 224 216 214 215 217 220 222 221 217 215 213 209 207 205 204 202 200 201 203 204 203
175 179 172 164 170 172 173 175 171 169 175 177 178 179 177 174 177 177 169 160 151 145 118 23 12 341 337 345 342 333 332 334 334 332 328 323 320 322 325 321 320 331 340 336 328 325 322 321 321 320 319 321 323 327 332 333 335 335 323 300 286 272 257 239 223 215 212 211 211 212 212 212 212 214 211 207 206 205 204 203 200 198 198 200 201